Вернуться в каталог

STARLINK-4405

АктивенСвязьSSO
NORAD 53201·PAYLOAD·🇺🇸 United States

Запущен Jul 22, 2022 с Vandenberg Space Force Base

Loading…

Ближайшие Пролёты (ближайшие 24 часа)

TLE

СвежийSource: CelesTrak SupGP

Эпоха: Sep 15, 2026, 02:03 UTC

1 53201C 22084N   26258.08590278  .00286940  00000+0  74356-2 0  2582
2 53201  97.4964 323.6294 0001603  85.3673 340.6473 15.38934596    14

Отслеживайте STARLINK-4405 в реальном времени с AllMySat

Download on the App Store